Montross, Virginia, United States (22520)
Lat: 38.09N, Lon: 76.83W
Wx Zone: VAZ075
Local Info
Past Weather Observations for Wednesday, April 16, 2014

NOTE: This archive is for the closest National Weather Service station to Montross. Information may differ from the station used for current weather conditions.

Time Weather Temperature Dewpoint Humidity Pressure Winds Precip Visibility
23:52
Clear
41°F / 5°C 28°F / -2°C 61% 30.54 in
(1034 mb)
E 10.4 mph
(E 17 kph)
- 10SM
22:52
Clear
39°F / 4°C 27°F / -3°C 61% 30.54 in
(1034 mb)
NE 8.1 mph
(NE 13 kph)
- 10SM
21:52
Clear
39°F / 4°C 27°F / -3°C 61% 30.54 in
(1034 mb)
NE 8.1 mph
(NE 13 kph)
- 10SM
20:52
Clear
41°F / 5°C 25°F / -4°C 53% 30.51 in
(1033 mb)
NE 6.9 mph
(NE 11 kph)
- 10SM
19:52
Partly Cloudy
43°F / 6°C 21°F / -6°C 42% 30.51 in
(1033 mb)
NE 9.2 mph
(NE 15 kph)
- 10SM
18:52
Partly Cloudy
45°F / 7°C 21°F / -6°C 39% 30.48 in
(1032 mb)
N 8.1 mph
(N 13 kph)
- 10SM
17:52
Partly Cloudy
46°F / 8°C 21°F / -6°C 37% 30.45 in
(1031 mb)
NNE 10.4 mph
(NNE 17 kph)
- 10SM
16:52
Partly Cloudy
46°F / 8°C 21°F / -6°C 37% 30.42 in
(1030 mb)
N 12.7 mph
(N 20 kph)
- 10SM
15:52
Partly Cloudy
46°F / 8°C 18°F / -8°C 32% 30.42 in
(1030 mb)
NNE 17.3 mph
(NNE 28 kph)
- 10SM
14:52
Clear
46°F / 8°C 18°F / -8°C 32% 30.42 in
(1030 mb)
NNE 15 mph
(NNE 24 kph)
- 10SM
13:52
Clear
46°F / 8°C 21°F / -6°C 37% 30.42 in
(1030 mb)
NNE 19.6 mph
(NNE 32 kph)
- 10SM
12:52
Clear
45°F / 7°C 21°F / -6°C 39% 30.45 in
(1031 mb)
NE 17.3 mph
(NE 28 kph)
- 10SM
11:52
Partly Cloudy
45°F / 7°C 18°F / -8°C 34% 30.45 in
(1031 mb)
NNE 16.1 mph
(NNE 26 kph)
- 10SM
10:52
Partly Cloudy
43°F / 6°C 18°F / -8°C 36% 30.45 in
(1031 mb)
N 17.3 mph
(N 28 kph)
- 10SM
09:52
Partly Cloudy
39°F / 4°C 18°F / -8°C 42% 30.42 in
(1030 mb)
N 15 mph
(N 24 kph)
- 10SM
08:52
Partly Cloudy
39°F / 4°C 18°F / -8°C 42% 30.39 in
(1029 mb)
N 16.1 mph
(N 26 kph)
- 10SM
07:52
Partly Cloudy
36°F / 2°C 16°F / -9°C 44% 30.36 in
(1028 mb)
NNW 18.4 mph
(NNW 30 kph)
- 10SM
06:52
Partly Cloudy
34°F / 1°C 18°F / -8°C 51% 30.33 in
(1027 mb)
NNW 20.7 mph
(NNW 33 kph)
- 10SM
05:52
Partly Cloudy
34°F / 1°C 16°F / -9°C 48% 30.3 in
(1026 mb)
NNW 20.7 mph
(NNW 33 kph)
- 10SM
04:52
Partly Cloudy
34°F / 1°C 16°F / -9°C 48% 30.24 in
(1024 mb)
NNW 19.6 mph
(NNW 32 kph)
- 10SM
04:03
Clear
34°F / 1°C 16°F / -9°C 48% 30.21 in
(1023 mb)
NNW 23 mph
(NNW 37 kph)
- 10SM
03:52
Clear
34°F / 1°C 16°F / -9°C 48% 30.18 in
(1022 mb)
NNW 25.3 mph
(NNW 41 kph)
- 10SM
02:52
Clear
36°F / 2°C 19°F / -7°C 52% 30.15 in
(1021 mb)
NNW 20.7 mph
(NNW 33 kph)
- 10SM
01:52
Clear
36°F / 2°C 23°F / -5°C 60% 30.12 in
(1020 mb)
NNW 19.6 mph
(NNW 32 kph)
- 10SM
00:52
Clear
37°F / 3°C 25°F / -4°C 60% 30.06 in
(1018 mb)
NNW 23 mph
(NNW 37 kph)
- 10SM
Time Weather Temperature Dewpoint Humidity Pressure Winds Precip Visibility


Weather for websites

WeatherForYou.com, LLC is not responsible for any damages or problems caused by this service. Current weather conditions are obtained from the closest station including government and personal stations which may have varying degrees of accuracy. Weather forecasts are derived from the NOAA NDFD. Like all things, this site belongs to Jesus Christ... He just trusts me to maintain it. If you have any questions or comments email webmaster@weatherforyou.com

Copyright © 2014, WeatherForYou.com LLC. All rights reserved.